Time,TemperatureF,DewpointF,PressureIn,WindDirection,WindDirectionDegrees,WindSpeedMPH,WindSpeedGustMPH,Humidity,HourlyPrecipIn,Conditions,Clouds,dailyrainin,SoftwareType,DateUTC
2014-09-03 00:04:00,53.5,52.4,29.90,East,86,0.0,0.0,96,0.00,,,0.02,Wunderground v.1.15,2014-09-03 05:04:00,
2014-09-03 00:09:00,53.3,52.2,29.90,East,86,0.0,0.0,96,0.00,,,0.02,Wunderground v.1.15,2014-09-03 05:09:00,
2014-09-03 00:14:00,53.2,51.8,29.90,East,86,0.0,0.0,95,0.00,,,0.02,Wunderground v.1.15,2014-09-03 05:14:00,
2014-09-03 00:24:00,52.9,51.8,29.90,East,86,0.0,0.0,96,0.00,,,0.00,Wunderground v.1.15,2014-09-03 05:24:00,
2014-09-03 00:29:00,52.8,51.7,29.90,East,86,0.0,0.0,96,0.00,,,0.00,Wunderground v.1.15,2014-09-03 05:29:00,
2014-09-03 00:34:00,52.8,51.7,29.90,East,86,0.0,0.0,96,0.00,,,0.00,Wunderground v.1.15,2014-09-03 05:34:00,
2014-09-03 00:44:00,52.5,51.4,29.91,East,86,0.0,0.0,96,0.00,,,0.00,Wunderground v.1.15,2014-09-03 05:44:00,
2014-09-03 00:49:00,52.3,51.2,29.91,East,86,0.0,0.0,96,0.00,,,0.00,Wunderground v.1.15,2014-09-03 05:49:00,
2014-09-03 00:54:00,52.1,51.0,29.91,East,86,0.0,0.0,96,0.00,,,0.00,Wunderground v.1.15,2014-09-03 05:54:00,
2014-09-03 00:59:00,52.1,51.0,29.91,East,86,0.0,0.0,96,0.00,,,0.00,Wunderground v.1.15,2014-09-03 05:59:00,
2014-09-03 01:04:00,52.0,50.9,29.91,East,86,0.0,0.0,96,0.00,,,0.00,Wunderground v.1.15,2014-09-03 06:04:00,
2014-09-03 01:09:00,51.9,50.8,29.91,East,86,0.0,0.0,96,0.00,,,0.00,Wunderground v.1.15,2014-09-03 06:09:00,
2014-09-03 01:14:00,51.8,50.7,29.91,East,86,0.0,0.0,96,0.00,,,0.00,Wunderground v.1.15,2014-09-03 06:14:00,
2014-09-03 01:24:00,51.9,50.8,29.91,East,86,0.0,0.0,96,0.00,,,0.00,Wunderground v.1.15,2014-09-03 06:24:00,
2014-09-03 01:34:00,52.1,51.0,29.91,East,86,0.0,0.0,96,0.00,,,0.00,Wunderground v.1.15,2014-09-03 06:34:00,
2014-09-03 01:39:00,52.1,51.0,29.91,East,86,0.0,0.0,96,0.00,,,0.00,Wunderground v.1.15,2014-09-03 06:39:00,
2014-09-03 01:44:00,52.0,50.9,29.91,East,86,0.0,0.0,96,0.00,,,0.00,Wunderground v.1.15,2014-09-03 06:44:00,
2014-09-03 01:49:00,51.9,50.8,29.91,East,86,0.0,0.0,96,0.00,,,0.00,Wunderground v.1.15,2014-09-03 06:49:00,
2014-09-03 01:59:00,51.6,50.5,29.92,East,86,0.0,0.0,96,0.00,,,0.00,Wunderground v.1.15,2014-09-03 06:59:00,
2014-09-03 02:04:00,51.5,50.4,29.92,East,86,0.0,0.0,96,0.00,,,0.00,Wunderground v.1.15,2014-09-03 07:04:00,
2014-09-03 02:14:00,51.5,50.4,29.92,East,86,0.0,0.0,96,0.00,,,0.00,Wunderground v.1.15,2014-09-03 07:14:00,
2014-09-03 02:19:00,51.6,50.5,29.92,East,86,0.0,0.0,96,0.00,,,0.00,Wunderground v.1.15,2014-09-03 07:19:00,
2014-09-03 02:24:00,51.6,50.5,29.92,East,86,0.0,0.0,96,0.00,,,0.00,Wunderground v.1.15,2014-09-03 07:24:00,
2014-09-03 02:29:00,51.7,50.6,29.92,East,86,0.0,0.0,96,0.00,,,0.00,Wunderground v.1.15,2014-09-03 07:29:00,
2014-09-03 02:39:00,51.6,50.5,29.92,East,86,0.0,0.0,96,0.00,,,0.00,Wunderground v.1.15,2014-09-03 07:39:00,
2014-09-03 02:49:00,51.3,50.2,29.92,East,86,0.0,0.0,96,0.00,,,0.00,Wunderground v.1.15,2014-09-03 07:49:00,
2014-09-03 02:59:00,51.2,50.1,29.92,East,86,0.0,0.0,96,0.00,,,0.00,Wunderground v.1.15,2014-09-03 07:59:00,
2014-09-03 03:04:00,51.3,50.2,29.92,East,86,0.0,0.0,96,0.00,,,0.00,Wunderground v.1.15,2014-09-03 08:04:00,
2014-09-03 03:09:00,51.4,50.3,29.92,East,86,0.0,0.0,96,0.00,,,0.00,Wunderground v.1.15,2014-09-03 08:09:00,
2014-09-03 03:14:00,51.4,50.3,29.93,East,86,0.0,0.0,96,0.00,,,0.00,Wunderground v.1.15,2014-09-03 08:14:00,
2014-09-03 03:19:00,51.3,50.2,29.92,East,86,0.0,0.0,96,0.00,,,0.00,Wunderground v.1.15,2014-09-03 08:19:00,
2014-09-03 03:24:00,51.0,49.9,29.93,East,86,0.0,0.0,96,0.00,,,0.00,Wunderground v.1.15,2014-09-03 08:24:00,